Flag for Canada Weather past 2 weeks in Prince George, British Columbia, Canada

Now
66 °F

Clear.


Feels Like: 66 °F
Forecast: 52 / 86 °F
Wind: 8 mph from North

Location: Prince George

Current Time: Jul 6, 2015 at 11:57:59 PM

Latest Report: Jul 6, 2015 at 11:00 PM


Visibility: 9 mi

Pressure: 30.05 "Hg (28.10 "Hg at 573m altitude)

Humidity: 52%

Dew point: 48 °F

Location of Prince GeorgeLocation

Historic Weather in Prince George — Graph

°F

Prince George temperature yesterday

Maximum temperature yesterday: 77 °F (at 6:00 PM)
Minimum temperature yesterday: 48 °F (at 3:00 AM)
Average temperature yesterday: 63 °F

Past Weeks' High & Low Weather Summary

 TemperatureHumidityPressure
High86 °F (Jul 2, 4:00 PM)100% (Jun 22, 4:59 AM)30.22 "Hg (Jun 22, 4:59 AM)
Low41 °F (Jul 4, 5:00 AM)15% (Jul 2, 5:00 PM)29.92 "Hg (Jul 3, 8:00 PM)
Average65 °F57%30.06 "Hg
* Reported Jun 21 10:00 PM — Jul 6 10:00 PM, Prince George, Weather by CustomWeather, © 2015

Note: Actual official high and low records may vary slightly from our data, if they occured in-between our weather recording intervals... More about our weather records

Advertising

Prince George weather history for previous 24 hours

 ConditionsComfort  
Time TempWeatherWind HumidityBarometerVisibility
10:00 PM
Mon, Jul 6
66 °FSunny.3 mph52%30.05 "Hg9 mi
9:00 PM72 °FSunny.8 mph41%30.03 "Hg9 mi
8:00 PM77 °FSunny.5 mph32%30.02 "Hg9 mi
7:00 PM81 °FSunny.7 mph26%30.04 "Hg9 mi
6:00 PM81 °FScattered clouds.9 mph24%30.05 "Hg9 mi
5:00 PM81 °FPartly sunny.9 mph24%30.06 "Hg9 mi
4:00 PM82 °FScattered clouds.7 mph25%30.05 "Hg9 mi
3:00 PM81 °FPassing clouds.9 mph28%30.06 "Hg9 mi
2:00 PM81 °FPassing clouds.8 mph26%30.06 "Hg9 mi
1:00 PM79 °FSunny.10 mph26%30.07 "Hg9 mi
12:00 PM75 °FSunny.5 mph29%30.08 "Hg9 mi
11:00 AM72 °FSunny.5 mph44%30.07 "Hg9 mi
10:00 AM66 °FSunny.No wind52%30.08 "Hg9 mi
9:00 AM63 °FSunny.5 mph56%30.08 "Hg9 mi
8:00 AM59 °FSunny.3 mph63%30.07 "Hg9 mi
7:00 AM50 °FSunny.No wind76%30.07 "Hg9 mi
6:00 AM43 °FSunny.No wind87%30.08 "Hg9 mi
5:00 AM41 °FClear.No wind93%30.07 "Hg9 mi
4:00 AM45 °FClear.No wind87%30.06 "Hg9 mi
3:00 AM45 °FClear.No wind81%30.05 "Hg9 mi
2:00 AM46 °FClear.No wind82%30.05 "Hg9 mi
1:00 AM48 °FClear.2 mph76%30.05 "Hg9 mi
12:00 AM48 °FClear.2 mph76%30.06 "Hg9 mi
11:00 PM
Sun, Jul 5
55 °FClear.2 mph72%30.04 "Hg9 mi
Weather by CustomWeather, © 2015

See weather overviewHow to use our weather pages